PENSACOLA 115NM SSE of Pensacola, FL (42039)

Conditions for Thursday

Daily
Weekly
Monthly
Marine Data Graph
Ad Blocker Enabled

Marine & Boating Location Search

Enter a coastal zip code for marine weather.

General Information

Location: 28.739 North -86.006 West
Buoy Type: 3-meter discus buoy
Buoy Hull: 3D55
Payload: ARES payload
Owned by: NDBC
Windspeed: Measured by obtained from anemometer
Sea Surface: Measured by Intake

Weather and Wave Data

Time Temp Humidity Wind Dominant Wave Wind Wave Wave Swell Pressure
  Air
(°F)
Water
(°F)
  Dir Speed
(kts)
Speed
(mph)
Period
(sec)
Height
(ft)
Range
(ft)
Period
(sec)
Height
(ft)
Range
(ft)
Period
(sec)
Height
(ft)
Range
(ft)
Atmo.
(in)
Tend.
(in)
20:50 72 74 49 East 13.6 15.7 5 3.61 exactly 3.6 5 3.28 2.46 - 4.10 7 1.64 0.82 - 2.46 30.07 -
21:50 72 74 44 ESE 7.8 8.9 6 3.28 exactly 3.3 4 1.64 0.82 - 2.46 6 3.28 2.46 - 4.10 30.07 -
22:50 72 74 44 East 9.7 11.2 5 2.95 exactly 3.0 4 1.64 0.82 - 2.46 5 1.64 0.82 - 2.46 30.06 -
23:50 72 74 43 ESE 7.8 8.9 6 2.95 exactly 3.0 4 1.64 0.82 - 2.46 6 3.28 2.46 - 4.10 30.06 -0.01
00:50 72 74 40 ESE 7.8 8.9 6 2.62 exactly 2.6 4 1.64 0.82 - 2.46 6 1.64 0.82 - 2.46 30.05 -0.02
01:50 72 74 40 ESE 7.8 8.9 7 2.62 exactly 2.6 4 1.64 0.82 - 2.46 7 1.64 0.82 - 2.46 30.04 -0.03
02:50 72 74 49 East 9.7 11.2 6 2.62 exactly 2.6 5 1.64 0.82 - 2.46 6 1.64 0.82 - 2.46 30.02 -0.04
03:50 72 74 51 East 11.7 13.4 6 2.30 exactly 2.3 5 1.64 0.82 - 2.46 6 1.64 0.82 - 2.46 30.01 -0.04
04:50 71 74 63 East 9.7 11.2 5 2.30 exactly 2.3 5 1.64 0.82 - 2.46 6 1.64 0.82 - 2.46 30.00 -0.03
05:50 71 74 68 East 11.7 13.4 6 2.30 exactly 2.3 5 1.64 0.82 - 2.46 6 1.64 0.82 - 2.46 30.01 -
06:50 71 74 70 East 11.7 13.4 6 2.30 exactly 2.3 5 1.64 0.82 - 2.46 6 1.64 0.82 - 2.46 30.02 +0.02
07:50 71 74 73 East 11.7 13.4 4 2.30 exactly 2.3 4 1.64 0.82 - 2.46 7 1.64 0.82 - 2.46 30.04 +0.04
08:50 71 74 74 East 15.6 17.9 6 2.62 exactly 2.6 6 3.28 2.46 - 4.10 - - - 30.03 +0.02
09:50 72 74 63 ESE 13.6 15.7 4 2.95 exactly 3.0 4 3.28 2.46 - 4.10 - - - 30.04 +0.01
10:50 72 74 65 ESE 11.7 13.4 5 2.95 exactly 3.0 5 3.28 2.46 - 4.10 7 1.64 0.82 - 2.46 30.02 -0.02
11:50 72 75 65 ESE 9.7 11.2 5 2.62 exactly 2.6 5 1.64 0.82 - 2.46 5 1.64 0.82 - 2.46 30.00 -0.04
12:50 73 75 53 SSE 7.8 8.9 5 2.62 exactly 2.6 4 1.64 0.82 - 2.46 5 1.64 0.82 - 2.46 29.98 -0.06
13:50 73 75 48 SE 3.9 4.5 5 2.62 exactly 2.6 4 1.64 0.82 - 2.46 5 1.64 0.82 - 2.46 29.96 -0.05
14:50 73 75 51 SSE 3.9 4.5 5 2.62 exactly 2.6 4 1.64 0.82 - 2.46 5 1.64 0.82 - 2.46 29.97 -0.03
15:50 73 75 64 ENE 5.8 6.7 5 2.62 exactly 2.6 4 1.64 0.82 - 2.46 5 1.64 0.82 - 2.46 29.96 -0.01
16:50 72 75 75 East 13.6 15.7 5 2.62 exactly 2.6 5 1.64 0.82 - 2.46 - - - 29.96 -
17:50 72 75 77 East 13.6 15.7 5 2.95 exactly 3.0 5 3.28 2.46 - 4.10 - - - 29.97 -
18:50 72 75 78 East 15.6 17.9 5 2.95 exactly 3.0 5 3.28 2.46 - 4.10 - - - 29.98 +0.02
19:50 71 75 84 East 13.6 15.7 4 2.62 exactly 2.6 4 3.28 2.46 - 4.10 - - - 29.99 +0.02
21:50 72 75 79 East 11.7 13.4 4 2.95 exactly 3.0 4 3.28 2.46 - 4.10 - - - 29.99 -
22:50 73 75 71 ESE 13.6 15.7 4 2.95 exactly 3.0 4 3.28 2.46 - 4.10 - - - 29.97 -0.02
23:50 73 75 69 ESE 11.7 13.4 5 2.95 exactly 3.0 5 3.28 2.46 - 4.10 - - - 29.97 -0.02
00:50 73 75 66 ESE 9.7 11.2 5 2.30 exactly 2.3 5 1.64 0.82 - 2.46 5 1.64 0.82 - 2.46 29.97 -0.02
02:50 72 75 72 East 13.6 15.7 4 2.95 exactly 3.0 4 3.28 2.46 - 4.10 - - - 29.95 -0.02
03:50 72 75 79 East 13.6 15.7 5 2.95 exactly 3.0 5 3.28 2.46 - 4.10 - - - 29.94 -0.02

Detailed Wave Spectra

Time Water Depth Wave Height Spectral Peak Period Average Wave Period Sampling Interval Wave Record
20:00 899 ft 3.15 ft 5.9 sec 3.9 sec 0.6 sec 2400 sec
21:00 899 ft 3.44 ft 5.3 sec 4.0 sec 0.6 sec 2400 sec
22:00 899 ft 3.31 ft 5.9 sec 4.2 sec 0.6 sec 2400 sec
23:00 899 ft 2.99 ft 5.0 sec 4.2 sec 0.6 sec 2400 sec
00:00 899 ft 2.92 ft 6.3 sec 4.4 sec 0.6 sec 2400 sec
01:00 899 ft 2.76 ft 6.3 sec 4.4 sec 0.6 sec 2400 sec
02:00 899 ft 2.72 ft 6.7 sec 4.4 sec 0.6 sec 2400 sec
03:00 899 ft 2.66 ft 6.3 sec 4.3 sec 0.6 sec 2400 sec
04:00 899 ft 2.33 ft 5.9 sec 3.9 sec 0.6 sec 2400 sec
05:00 899 ft 2.40 ft 4.8 sec 4.0 sec 0.6 sec 2400 sec
06:00 899 ft 2.36 ft 5.9 sec 3.9 sec 0.6 sec 2400 sec
07:00 899 ft 2.36 ft 5.9 sec 3.8 sec 0.6 sec 2400 sec
08:00 899 ft 2.46 ft 3.8 sec 3.7 sec 0.6 sec 2400 sec
09:00 899 ft 2.69 ft 5.6 sec 3.8 sec 0.6 sec 2400 sec
10:00 899 ft 2.89 ft 3.8 sec 3.7 sec 0.6 sec 2400 sec
11:00 899 ft 2.99 ft 4.5 sec 3.8 sec 0.6 sec 2400 sec
12:00 899 ft 2.69 ft 4.5 sec 3.9 sec 0.6 sec 2400 sec
13:00 899 ft 2.62 ft 4.5 sec 3.9 sec 0.6 sec 2400 sec
14:00 899 ft 2.62 ft 5.0 sec 4.1 sec 0.6 sec 2400 sec
15:00 899 ft 2.59 ft 4.5 sec 4.1 sec 0.6 sec 2400 sec
16:00 899 ft 2.53 ft 5.0 sec 4.2 sec 0.6 sec 2400 sec
17:00 899 ft 2.53 ft 5.0 sec 4.0 sec 0.6 sec 2400 sec
18:00 899 ft 2.89 ft 5.0 sec 3.8 sec 0.6 sec 2400 sec
19:00 899 ft 2.82 ft 4.8 sec 3.7 sec 0.6 sec 2400 sec
22:00 899 ft 2.95 ft 4.0 sec 3.7 sec 0.6 sec 2400 sec
23:00 899 ft 2.82 ft 4.2 sec 3.7 sec 0.6 sec 2400 sec
00:00 899 ft 2.82 ft 4.8 sec 3.7 sec 0.6 sec 2400 sec
01:00 899 ft 2.40 ft 4.5 sec 3.7 sec 0.6 sec 2400 sec
02:00 899 ft 2.66 ft 4.5 sec 3.6 sec 0.6 sec 2400 sec
03:00 899 ft 2.89 ft 3.7 sec 3.7 sec 0.6 sec 2400 sec